{"data":{"norad_id":58797,"epoch":"2026-05-24T21:49:02.498880Z","epoch_age_seconds":93223,"freshness":"FRESH","line1":"1 58797U 24012L   26144.90905670  .00000300  00000+0  20421-4 0  9993","line2":"2 58797  43.0037  94.7220 0001057 272.1426  87.9305 15.27574628132898","mean_motion":15.27574628,"eccentricity":0.0001057,"inclination_deg":43.0037,"raan_deg":94.722,"arg_perigee_deg":272.1426,"mean_anomaly_deg":87.9305,"bstar":2.0421e-5,"rev_number":13289,"period_min":94.267080220188,"perigee_km":482.33995271675,"apogee_km":483.79041085798,"semimajor_km":6861.2021817874,"source":"CELESTRAK","updated_at":"2026-05-25T13:38:18.750395Z"}}